sat.trackr.live / text

‹ back to catalog

ONEWEB-0562

NORAD 55799 · 2023-029D

PAYLOAD ACTIVE UNKNOWN

§ Identity

Operator
Country
UK
Launch date
2023-03-09
Launch site
AFETR
Launch vehicle
Mass (kg)
RCS (m²)

Purposes: comms

External: N2YO · Heavens-Above · Gunter

§ Orbital elements

Epoch: 2026-05-25T02:48:37.293984Z

Period
109.03 min
Inclination
87.9164°
Eccentricity
0.0002746
Mean motion
13.20772064 rev/d
Perigee alt
1,179.7 km
Apogee alt
1,183.8 km
Semi-major
7,559.9 km
B*
1.3480e-4
RAAN
279.0519°
Arg perigee
94.2103°
Mean anomaly
265.9344°
Rev number
15,810

§ Raw data

ONEWEB-05621 55799U 23029D   26145.11709831  .00000068  00000+0  13480-3 0  99912 55799  87.9164 279.0519 0002746  94.2103 265.9344 13.20772064158103

JSON: /api/v1/satellites/55799 · /tle

For live sub-satellite position, see the globe view (requires WebGL).

§ Visibility from observer

Set your observer location to see the next 7 days of passes ≥ 10°. The values pass through the URL so the page stays shareable.

No JS? Fill the form by hand. The geolocation button needs JavaScript.